ATLAS 5 CENTAUR DEB, 46637

Orbit data source: Space-Track

ATLAS 5 CENTAUR DEB, 46637 is space debris in HEO originally from a launch on Wed, 17 Sep 2014 UTC launched from the Air Force Eastern Test Range (AFETR). Debris objects in space refer to the collection of defunct objects orbiting the Earth. Examples of debris include non-operational satellites, rocket bodies, and fragments generated from explosions, collisions, or faulty payload assembly.

Loading next visibility...
Identifier
46637, 2014-055CM
Orbit
HEO
Country
Flag of USUS
Related business
Flag of USUnited Launch Alliance/Lockheed Martin (US)
Manufacturer
Unknown
Mission
Spacecraft
Bus & Motor
Unknown
Mass
Unknown
Launch date (UTC)
2014-09-17 (11 years ago)
Launch vehicle
Unknown
Launch site
Air Force Eastern Test Range (AFETR)
Object type
Payload
Rocket body
Debris
Shape & HBR
Unknown shape, 1.1 m
Radar Cross Section
Small (<0.1 m²)

Expand to show TLE details & history
Last TLE update: 3 weeks ago

TLE from 3 weeks ago
0 ATLAS 5 CENTAUR DEB
1 46637U 14055CM  25268.52086632 -.00000124  00000-0  00000-0 0  9994
2 46637  20.9802 115.7010 5056834 215.4673  97.0624  1.94673827 35321
Epoch: 2025-09-25T12:30Z
TLE epoch observation values (Epoch: 2025-09-25T12:30:02.850Z)
Latitude
-0.00004°
Longitude
-76.34592°
Altitude
27,886.101 km
Speed
2.925 km/s
True Right ascension
07h 42m 59s
True Declination
0° 00' 00"
Sunlit
Object was in daylight at epoch
Visualization orbit readout
Latitude
Unknown
Longitude
Unknown
Altitude
Unknown
Speed
Unknown
Apparent Right ascension
Unknown
Apparent Declination
Unknown
Sunlit
N/A
Visualization observer readout
Local Sidereal Time
22:13:58
Azimuth
Unknown
Elevation
Unknown
Doppler factor
Unknown
Orbital elements
Apogee altitude
34,419.045 km
Perigee altitude
7,015.598 km
Semi-major axis
27,095.459 km
Eccentricity
0.50568
Inclination
20.9802°
RAAN
115.701°
Arg. of periapsis
215.4673°
True anomaly
144.56267°
Mean anomaly
97.0624°
Eccentric anomaly
121.71058°
Mean motion
0.48663 °/min
Orbital period
739.78 mins
BSTAR
0
Loading maneuver chart data...
Computing Atmospheric mass density...

Documentation

Showing up to 5 results
|